Lobo

Go HERE for most recent data if this page is not up to date.

Jump to table bottom
Date/Time Temp deg F RH % 24 Hr Snow (in) Snow Depth (in) H2O (in)
01/26 13:00 24.9 70 0.0 45.5 0.00
01/26 12:00 23.0 67 -0.0 45.6 0.00
01/26 11:00 20.7 80 -0.0 45.7 0.00
01/26 10:00 19.7 81 0.0 45.8 0.00
01/26 09:00 20.2 80 0.0 45.9 0.00
01/26 08:00 21.1 47 0.2 46.2 0.00
01/26 07:00 19.7 71 0.1 46.0 0.00
01/26 06:00 18.9 74 0.1 46.1 0.00
01/26 05:00 19.3 80 0.0 46.1 0.00
01/26 04:00 19.6 76 0.0 46.0 0.00
01/26 03:00 19.8 71 0.2 46.1 0.00
01/26 02:00 20.7 75 0.0 46.0 0.00
01/26 01:00 20.9 80 0.0 45.9 0.01
01/26 00:00 21.4 85 0.0 46.1 0.00
01/25 23:00 21.6 86 0.0 46.3 0.00
01/25 22:00 21.4 85 0.0 46.4 0.00
01/25 21:00 21.3 84 0.0 46.5 0.00
01/25 20:00 21.2 84 0.0 46.4 0.00
01/25 19:00 20.9 83 0.0 46.5 0.00
01/25 18:00 21.1 79 0.0 46.5 0.00
01/25 17:00 21.0 75 0.0 46.5 0.00
01/25 16:00 22.2 72 0.2 46.6 0.00
01/25 15:00 22.0 65 0.2 46.7 0.00
01/25 14:00 22.2 62 0.2 46.7 0.00
01/25 13:00 22.3 60 0.1 46.7 0.00
01/25 12:00 21.3 58 0.3 47.0 0.00
01/25 11:00 21.3 62 0.3 47.0 0.00
01/25 10:00 18.7 66 0.4 47.2 0.00
01/25 09:00 17.1 71 0.3 47.2 0.00
01/25 08:00 17.2 74 0.3 47.1 0.00
01/25 07:00 18.0 80 0.3 47.2 0.00
01/25 06:00 18.6 80 0.3 47.3 0.00
01/25 05:00 18.0 82 0.3 47.3 0.00
01/25 04:00 18.8 76 0.3 47.3 0.00
01/25 03:00 19.9 72 0.3 47.3 0.00
01/25 02:00 21.3 82 0.2 47.2 0.00
01/25 01:00 21.4 83 0.2 46.6 0.00
01/25 00:00 22.3 72 0.0 46.6 0.00
.